QPF
0.07 0.08 0.10 0.09 0.08 0.09 0.10 0.09 0.10 0.14 0.20 0.24 0.19 0.16 0.14 0.14 0.14 0.16 0.15 0.12 0.09 0.09 0.10 0.10 0.09 0.09 0.08 0.07 0.07 0.07 0.06 0.06 0.06 0.05 0.03 0.02 0.01 0.01 0.01 0.01 0.01 0.00 0.01
0.09 0.08 0.08 0.07 0.07 0.08 0.07 0.08 0.08 0.09 0.12 0.14 0.14 0.13 0.13 0.14 0.14 0.14 0.14 0.14 0.13 0.13 0.13 0.13 0.11 0.09 0.09 0.09 0.10 0.10 0.10 0.10 0.09 0.06 0.04 0.03 0.02 0.02 0.01 0.01 0.00 0.00 0.00
0.10 0.09 0.07 0.06 0.04 0.04 0.06 0.06 0.06 0.05 0.06 0.07 0.12 0.14 0.17 0.17 0.16 0.15 0.16 0.18 0.17 0.16 0.17 0.16 0.11 0.08 0.06 0.06 0.07 0.07 0.08 0.09 0.08 0.06 0.05 0.03 0.02 0.01 0.01 0.01 0.01 0.00 0.00
0.06 0.06 0.05 0.04 0.02 0.03 0.04 0.06 0.06 0.05 0.04 0.06 0.08 0.09 0.12 0.16 0.21 0.21 0.19 0.20 0.19 0.18 0.17 0.15 0.12 0.09 0.07 0.05 0.04 0.05 0.04 0.04 0.05 0.05 0.04 0.04 0.03 0.02 0.01 0.00 0.01 0.00 0.00
0.04 0.04 0.03 0.02 0.02 0.02 0.04 0.06 0.06 0.07 0.06 0.07 0.08 0.09 0.11 0.14 0.18 0.19 0.18 0.20 0.20 0.17 0.14 0.12 0.11 0.09 0.06 0.04 0.04 0.04 0.05 0.05 0.05 0.05 0.05 0.06 0.06 0.04 0.02 0.01 0.01 0.01 0.00
0.04 0.02 0.01 0.01 0.03 0.05 0.08 0.09 0.09 0.07 0.08 0.08 0.09 0.10 0.11 0.12 0.16 0.17 0.19 0.18 0.18 0.15 0.11 0.10 0.10 0.09 0.08 0.07 0.05 0.04 0.04 0.06 0.07 0.06 0.06 0.07 0.07 0.05 0.03 0.02 0.01 0.01 0.00
0.02 0.02 0.02 0.02 0.05 0.07 0.09 0.08 0.06 0.05 0.06 0.07 0.09 0.11 0.11 0.13 0.15 0.16 0.16 0.16 0.16 0.13 0.10 0.08 0.07 0.06 0.07 0.08 0.07 0.06 0.05 0.04 0.06 0.06 0.05 0.06 0.06 0.05 0.04 0.04 0.03 0.01 0.00
0.03 0.03 0.04 0.06 0.07 0.07 0.07 0.06 0.05 0.05 0.06 0.07 0.09 0.12 0.13 0.13 0.14 0.16 0.16 0.15 0.14 0.11 0.09 0.08 0.07 0.06 0.08 0.08 0.08 0.07 0.07 0.05 0.04 0.05 0.04 0.04 0.04 0.04 0.03 0.02 0.03 0.02 0.01
0.03 0.04 0.06 0.07 0.07 0.07 0.07 0.07 0.06 0.05 0.05 0.05 0.06 0.07 0.08 0.09 0.09 0.10 0.11 0.12 0.10 0.09 0.07 0.06 0.07 0.06 0.05 0.07 0.09 0.08 0.07 0.06 0.05 0.05 0.04 0.04 0.03 0.03 0.02 0.03 0.03 0.03 0.02
0.03 0.03 0.04 0.08 0.09 0.08 0.09 0.07 0.08 0.08 0.05 0.05 0.05 0.05 0.05 0.06 0.07 0.09 0.10 0.10 0.09 0.08 0.09 0.07 0.06 0.05 0.04 0.04 0.04 0.05 0.06 0.06 0.05 0.04 0.05 0.05 0.04 0.03 0.03 0.03 0.03 0.04 0.04
0.03 0.02 0.04 0.06 0.09 0.11 0.11 0.09 0.08 0.09 0.10 0.09 0.08 0.06 0.06 0.08 0.08 0.09 0.10 0.11 0.11 0.09 0.10 0.08 0.07 0.06 0.05 0.04 0.04 0.03 0.04 0.04 0.05 0.04 0.05 0.06 0.04 0.04 0.04 0.02 0.02 0.03 0.04
0.02 0.02 0.03 0.04 0.07 0.10 0.12 0.10 0.08 0.07 0.08 0.10 0.10 0.12 0.16 0.13 0.10 0.08 0.07 0.09 0.10 0.11 0.12 0.11 0.10 0.08 0.06 0.06 0.05 0.05 0.04 0.03 0.04 0.05 0.06 0.05 0.05 0.05 0.05 0.04 0.03 0.03 0.03
0.02 0.03 0.04 0.05 0.09 0.13 0.11 0.09 0.09 0.09 0.07 0.07 0.06 0.06 0.08 0.09 0.07 0.08 0.06 0.07 0.07 0.10 0.12 0.10 0.08 0.06 0.05 0.04 0.04 0.03 0.03 0.03 0.03 0.03 0.03 0.05 0.06 0.04 0.02 0.02 0.02 0.02 0.02
0.02 0.03 0.04 0.05 0.08 0.12 0.12 0.09 0.10 0.16 0.13 0.08 0.06 0.05 0.05 0.04 0.05 0.06 0.06 0.05 0.05 0.08 0.09 0.07 0.05 0.05 0.05 0.03 0.02 0.02 0.02 0.03 0.02 0.02 0.03 0.03 0.03 0.02 0.01 0.01 0.01 0.01 0.01
0.02 0.02 0.02 0.03 0.05 0.06 0.07 0.08 0.09 0.13 0.18 0.14 0.10 0.08 0.05 0.05 0.04 0.04 0.05 0.06 0.06 0.07 0.08 0.07 0.06 0.06 0.04 0.03 0.02 0.02 0.03 0.03 0.02 0.01 0.01 0.01 0.01 0.01 0.01 0.01 0.01 0.01 0.01
0.02 0.02 0.02 0.02 0.02 0.03 0.08 0.09 0.09 0.11 0.14 0.15 0.12 0.08 0.06 0.04 0.04 0.05 0.05 0.04 0.04 0.05 0.06 0.07 0.06 0.05 0.03 0.03 0.03 0.03 0.02 0.02 0.01 0.01 0.01 0.00 0.01 0.01 0.01 0.01 0.01 0.01 0.01
0.03 0.03 0.03 0.02 0.02 0.02 0.04 0.06 0.09 0.09 0.10 0.10 0.09 0.08 0.06 0.05 0.05 0.04 0.04 0.04 0.04 0.04 0.05 0.07 0.07 0.06 0.04 0.03 0.02 0.02 0.02 0.01 0.01 0.01 0.01 0.00 0.01 0.01 0.01 0.01 0.01 0.02 0.01
0.02 0.02 0.02 0.02 0.02 0.02 0.02 0.04 0.05 0.07 0.07 0.07 0.06 0.07 0.06 0.05 0.04 0.03 0.03 0.03 0.04 0.05 0.06 0.09 0.07 0.05 0.04 0.02 0.02 0.01 0.01 0.01 0.01 0.01 0.00 0.00 0.01 0.01 0.01 0.02 0.02 0.01 0.01
0.01 0.01 0.01 0.01 0.01 0.01 0.01 0.02 0.03 0.04 0.06 0.06 0.05 0.04 0.03 0.04 0.05 0.03 0.02 0.02 0.03 0.04 0.06 0.08 0.07 0.05 0.03 0.02 0.02 0.01 0.01 0.01 0.01 0.01 0.00 0.00 0.01 0.01 0.00 0.00 0.01 0.01 0.01
0.01 0.01 0.00 0.00 0.01 0.01 0.01 0.02 0.03 0.05 0.06 0.07 0.05 0.04 0.03 0.03 0.03 0.03 0.02 0.02 0.03 0.03 0.04 0.04 0.04 0.04 0.03 0.02 0.01 0.01 0.01 0.00 0.00 0.01 0.01 0.00 0.01 0.01 0.01 0.00 0.00 0.00 0.00
0.01 0.01 0.00 0.00 0.01 0.01 0.01 0.02 0.03 0.04 0.06 0.08 0.07 0.07 0.06 0.04 0.03 0.05 0.04 0.03 0.02 0.02 0.03 0.03 0.03 0.02 0.03 0.02 0.01 0.01 0.01 0.01 0.01 0.01 0.01 0.00 0.00 0.00 0.00 0.00 0.00 0.00 0.00
0.01 0.01 0.01 0.00 0.01 0.02 0.02 0.02 0.04 0.06 0.08 0.10 0.09 0.08 0.07 0.05 0.04 0.04 0.05 0.04 0.01 0.01 0.02 0.03 0.02 0.02 0.03 0.02 0.02 0.01 0.01 0.01 0.01 0.01 0.00 0.00 0.00 0.00 0.00 0.00 0.00 0.01 0.01
0.01 0.01 0.01 0.01 0.02 0.03 0.02 0.03 0.04 0.05 0.09 0.11 0.09 0.07 0.06 0.05 0.04 0.03 0.03 0.03 0.01 0.01 0.01 0.02 0.02 0.02 0.02 0.02 0.01 0.01 0.01 0.01 0.01 0.00 0.00 0.00 0.00 0.00 0.00 0.00 0.01 0.01 0.01
0.01 0.01 0.01 0.01 0.03 0.03 0.02 0.02 0.02 0.02 0.05 0.07 0.06 0.05 0.04 0.04 0.03 0.03 0.03 0.02 0.01 0.01 0.01 0.01 0.02 0.01 0.01 0.01 0.01 0.01 0.01 0.01 0.01 0.00 0.00 0.00 0.00 0.00 0.00 0.00 0.01 0.01 0.01
0.01 0.01 0.01 0.02 0.03 0.03 0.02 0.02 0.02 0.03 0.04 0.04 0.03 0.03 0.03 0.03 0.02 0.02 0.02 0.01 0.01 0.01 0.01 0.01 0.01 0.01 0.01 0.01 0.01 0.01 0.01 0.01 0.01 0.01 0.01 0.01 0.00 0.00 0.00 0.00 0.00 0.01 0.01
0.01 0.00 0.01 0.03 0.04 0.03 0.03 0.03 0.03 0.04 0.03 0.03 0.03 0.03 0.03 0.02 0.01 0.01 0.01 0.01 0.01 0.01 0.01 0.01 0.01 0.01 0.01 0.01 0.01 0.01 0.01 0.01 0.01 0.01 0.01 0.01 0.01 0.00 0.00 0.00 0.00 0.00 0.00
MSLP
1005.11 1005.17 1005.29 1005.44 1005.60 1005.77 1005.96 1006.19 1006.46 1006.76 1007.08 1007.39 1007.66 1007.86 1007.98 1008.01 1007.99 1007.95 1007.94 1008.01 1008.20 1008.52 1008.96 1009.49 1010.07 1010.64 1011.14 1011.56 1011.86 1012.05 1012.15 1012.20 1012.21 1012.21 1012.20 1012.20 1012.19 1012.14 1012.05 1011.90 1011.70 1011.46 1011.20
1004.89 1004.92 1005.01 1005.12 1005.25 1005.40 1005.58 1005.82 1006.12 1006.48 1006.87 1007.24 1007.56 1007.78 1007.87 1007.85 1007.75 1007.61 1007.50 1007.49 1007.62 1007.91 1008.36 1008.92 1009.54 1010.15 1010.70 1011.16 1011.49 1011.71 1011.85 1011.93 1011.98 1012.03 1012.08 1012.13 1012.15 1012.13 1012.03 1011.86 1011.61 1011.31 1010.98
1004.48 1004.52 1004.61 1004.73 1004.85 1005.00 1005.20 1005.47 1005.81 1006.22 1006.67 1007.10 1007.45 1007.69 1007.78 1007.73 1007.57 1007.37 1007.20 1007.14 1007.22 1007.48 1007.91 1008.47 1009.09 1009.71 1010.28 1010.74 1011.09 1011.33 1011.49 1011.61 1011.73 1011.84 1011.97 1012.09 1012.17 1012.19 1012.12 1011.94 1011.66 1011.31 1010.91
1003.96 1004.03 1004.16 1004.31 1004.47 1004.65 1004.87 1005.17 1005.54 1005.99 1006.47 1006.92 1007.30 1007.55 1007.64 1007.58 1007.40 1007.18 1006.98 1006.88 1006.95 1007.19 1007.60 1008.14 1008.74 1009.34 1009.88 1010.33 1010.67 1010.92 1011.11 1011.28 1011.46 1011.66 1011.87 1012.07 1012.23 1012.31 1012.27 1012.10 1011.81 1011.42 1010.97
1003.42 1003.55 1003.73 1003.94 1004.15 1004.37 1004.62 1004.94 1005.32 1005.77 1006.25 1006.70 1007.07 1007.31 1007.40 1007.33 1007.16 1006.94 1006.75 1006.67 1006.73 1006.97 1007.36 1007.88 1008.45 1009.01 1009.51 1009.93 1010.25 1010.51 1010.73 1010.95 1011.19 1011.47 1011.78 1012.07 1012.31 1012.45 1012.45 1012.31 1012.02 1011.61 1011.13
1002.95 1003.13 1003.38 1003.65 1003.91 1004.17 1004.45 1004.76 1005.14 1005.56 1006.00 1006.41 1006.74 1006.96 1007.03 1006.97 1006.81 1006.62 1006.47 1006.42 1006.51 1006.76 1007.15 1007.64 1008.17 1008.69 1009.15 1009.53 1009.84 1010.10 1010.35 1010.62 1010.93 1011.29 1011.68 1012.05 1012.37 1012.57 1012.62 1012.50 1012.23 1011.82 1011.32
1002.60 1002.82 1003.11 1003.42 1003.72 1004.01 1004.30 1004.61 1004.95 1005.33 1005.71 1006.06 1006.33 1006.50 1006.55 1006.49 1006.36 1006.21 1006.11 1006.11 1006.24 1006.51 1006.90 1007.38 1007.88 1008.36 1008.78 1009.13 1009.43 1009.70 1009.98 1010.30 1010.68 1011.11 1011.57 1012.01 1012.39 1012.64 1012.73 1012.64 1012.39 1011.99 1011.49
1002.37 1002.57 1002.87 1003.20 1003.52 1003.83 1004.12 1004.42 1004.74 1005.06 1005.38 1005.66 1005.87 1006.00 1006.02 1005.96 1005.85 1005.75 1005.69 1005.74 1005.91 1006.20 1006.60 1007.06 1007.54 1007.98 1008.38 1008.72 1009.02 1009.31 1009.62 1009.99 1010.43 1010.93 1011.44 1011.94 1012.36 1012.64 1012.76 1012.70 1012.47 1012.10 1011.63
1002.20 1002.35 1002.60 1002.91 1003.24 1003.55 1003.86 1004.16 1004.46 1004.76 1005.03 1005.27 1005.43 1005.52 1005.52 1005.46 1005.36 1005.29 1005.27 1005.35 1005.55 1005.85 1006.25 1006.69 1007.14 1007.57 1007.95 1008.29 1008.61 1008.93 1009.30 1009.72 1010.21 1010.76 1011.31 1011.84 1012.28 1012.58 1012.72 1012.68 1012.47 1012.14 1011.71
1002.04 1002.08 1002.25 1002.51 1002.81 1003.13 1003.46 1003.79 1004.12 1004.42 1004.70 1004.92 1005.07 1005.14 1005.13 1005.07 1004.98 1004.92 1004.92 1005.02 1005.21 1005.51 1005.88 1006.30 1006.73 1007.14 1007.52 1007.88 1008.23 1008.60 1009.02 1009.50 1010.04 1010.62 1011.20 1011.74 1012.18 1012.48 1012.62 1012.59 1012.41 1012.12 1011.75
1001.85 1001.74 1001.80 1001.99 1002.26 1002.60 1002.96 1003.35 1003.74 1004.10 1004.42 1004.68 1004.85 1004.93 1004.93 1004.87 1004.79 1004.73 1004.72 1004.79 1004.96 1005.22 1005.56 1005.94 1006.35 1006.75 1007.13 1007.52 1007.91 1008.34 1008.82 1009.36 1009.94 1010.55 1011.14 1011.67 1012.09 1012.38 1012.50 1012.48 1012.32 1012.07 1011.76
1001.66 1001.38 1001.32 1001.42 1001.67 1002.02 1002.44 1002.91 1003.39 1003.85 1004.26 1004.58 1004.81 1004.92 1004.94 1004.89 1004.80 1004.72 1004.68 1004.71 1004.83 1005.04 1005.32 1005.66 1006.04 1006.43 1006.83 1007.25 1007.70 1008.19 1008.73 1009.32 1009.94 1010.56 1011.15 1011.66 1012.05 1012.31 1012.41 1012.38 1012.24 1012.02 1011.77
1001.51 1001.08 1000.90 1000.93 1001.15 1001.52 1002.01 1002.57 1003.15 1003.72 1004.23 1004.64 1004.93 1005.09 1005.14 1005.09 1004.99 1004.88 1004.79 1004.77 1004.83 1004.97 1005.20 1005.49 1005.84 1006.22 1006.65 1007.11 1007.62 1008.17 1008.77 1009.40 1010.05 1010.68 1011.25 1011.73 1012.09 1012.30 1012.38 1012.33 1012.19 1012.00 1011.79
1001.51 1000.97 1000.69 1000.66 1000.86 1001.25 1001.79 1002.42 1003.09 1003.75 1004.34 1004.82 1005.17 1005.37 1005.44 1005.40 1005.28 1005.14 1005.01 1004.93 1004.93 1005.01 1005.18 1005.43 1005.76 1006.15 1006.60 1007.11 1007.67 1008.28 1008.93 1009.60 1010.26 1010.89 1011.44 1011.88 1012.20 1012.37 1012.41 1012.34 1012.19 1012.01 1011.83
1001.74 1001.14 1000.80 1000.73 1000.91 1001.30 1001.85 1002.51 1003.23 1003.93 1004.56 1005.08 1005.45 1005.67 1005.75 1005.70 1005.57 1005.40 1005.24 1005.12 1005.07 1005.11 1005.25 1005.48 1005.80 1006.21 1006.69 1007.23 1007.84 1008.50 1009.19 1009.89 1010.56 1011.18 1011.70 1012.10 1012.37 1012.50 1012.50 1012.41 1012.25 1012.07 1011.90
1002.27 1001.65 1001.29 1001.19 1001.34 1001.69 1002.22 1002.85 1003.54 1004.21 1004.82 1005.32 1005.68 1005.89 1005.95 1005.90 1005.76 1005.58 1005.41 1005.28 1005.22 1005.25 1005.37 1005.61 1005.94 1006.37 1006.88 1007.47 1008.12 1008.81 1009.53 1010.24 1010.91 1011.51 1012.00 1012.36 1012.59 1012.68 1012.65 1012.53 1012.36 1012.18 1012.01
1003.07 1002.48 1002.13 1002.00 1002.10 1002.39 1002.82 1003.36 1003.95 1004.52 1005.04 1005.46 1005.75 1005.92 1005.96 1005.90 1005.77 1005.61 1005.46 1005.35 1005.32 1005.37 1005.52 1005.78 1006.14 1006.60 1007.15 1007.78 1008.46 1009.18 1009.91 1010.62 1011.28 1011.85 1012.31 1012.63 1012.83 1012.89 1012.83 1012.70 1012.52 1012.33 1012.16
1004.08 1003.55 1003.21 1003.06 1003.08 1003.25 1003.55 1003.93 1004.34 1004.75 1005.12 1005.41 1005.61 1005.71 1005.73 1005.67 1005.57 1005.46 1005.37 1005.33 1005.36 1005.47 1005.68 1005.99 1006.40 1006.90 1007.49 1008.14 1008.84 1009.57 1010.30 1011.00 1011.63 1012.17 1012.59 1012.89 1013.06 1013.10 1013.03 1012.89 1012.71 1012.53 1012.36
1005.16 1004.70 1004.38 1004.18 1004.11 1004.14 1004.25 1004.42 1004.62 1004.82 1005.00 1005.15 1005.24 1005.28 1005.28 1005.25 1005.21 1005.18 1005.19 1005.25 1005.38 1005.58 1005.87 1006.25 1006.72 1007.26 1007.87 1008.54 1009.25 1009.97 1010.68 1011.35 1011.95 1012.46 1012.85 1013.12 1013.26 1013.29 1013.23 1013.10 1012.93 1012.75 1012.59
1006.19 1005.79 1005.47 1005.21 1005.02 1004.88 1004.79 1004.74 1004.71 1004.70 1004.69 1004.69 1004.69 1004.69 1004.69 1004.72 1004.77 1004.85 1004.99 1005.17 1005.42 1005.74 1006.12 1006.57 1007.10 1007.68 1008.31 1008.98 1009.68 1010.38 1011.06 1011.69 1012.24 1012.71 1013.06 1013.31 1013.44 1013.46 1013.41 1013.30 1013.15 1012.99 1012.85
1007.07 1006.70 1006.36 1006.03 1005.71 1005.40 1005.11 1004.85 1004.60 1004.40 1004.23 1004.11 1004.05 1004.04 1004.08 1004.19 1004.35 1004.57 1004.85 1005.18 1005.55 1005.98 1006.46 1006.98 1007.55 1008.15 1008.79 1009.46 1010.13 1010.79 1011.43 1012.01 1012.51 1012.93 1013.25 1013.46 1013.58 1013.60 1013.56 1013.47 1013.35 1013.22 1013.09
1007.74 1007.39 1007.01 1006.59 1006.15 1005.69 1005.22 1004.77 1004.36 1004.00 1003.73 1003.54 1003.45 1003.46 1003.57 1003.78 1004.08 1004.44 1004.86 1005.32 1005.82 1006.35 1006.91 1007.48 1008.08 1008.70 1009.33 1009.97 1010.61 1011.22 1011.80 1012.32 1012.77 1013.13 1013.40 1013.59 1013.68 1013.70 1013.67 1013.60 1013.50 1013.40 1013.30
1008.23 1007.86 1007.43 1006.93 1006.38 1005.79 1005.19 1004.60 1004.08 1003.63 1003.29 1003.08 1003.01 1003.08 1003.28 1003.61 1004.02 1004.52 1005.07 1005.65 1006.25 1006.85 1007.46 1008.07 1008.68 1009.30 1009.91 1010.51 1011.10 1011.66 1012.17 1012.63 1013.02 1013.32 1013.55 1013.69 1013.76 1013.77 1013.73 1013.67 1013.60 1013.52 1013.45
1008.59 1008.19 1007.70 1007.14 1006.50 1005.82 1005.13 1004.48 1003.89 1003.41 1003.06 1002.88 1002.85 1003.00 1003.29 1003.72 1004.24 1004.85 1005.49 1006.15 1006.82 1007.47 1008.11 1008.73 1009.33 1009.92 1010.50 1011.06 1011.59 1012.09 1012.55 1012.94 1013.26 1013.50 1013.67 1013.77 1013.81 1013.80 1013.76 1013.70 1013.64 1013.58 1013.52
1008.90 1008.47 1007.94 1007.32 1006.64 1005.92 1005.19 1004.51 1003.92 1003.45 1003.14 1003.00 1003.04 1003.25 1003.63 1004.14 1004.74 1005.41 1006.11 1006.82 1007.51 1008.18 1008.82 1009.42 1010.00 1010.56 1011.09 1011.60 1012.08 1012.52 1012.91 1013.23 1013.49 1013.68 1013.79 1013.84 1013.84 1013.81 1013.75 1013.69 1013.63 1013.58 1013.53
1009.23 1008.78 1008.23 1007.60 1006.91 1006.18 1005.47 1004.81 1004.25 1003.83 1003.56 1003.48 1003.58 1003.86 1004.29 1004.84 1005.48 1006.17 1006.89 1007.59 1008.28 1008.93 1009.54 1010.11 1010.65 1011.16 1011.65 1012.11 1012.53 1012.91 1013.24 1013.51 1013.71 1013.84 1013.91 1013.92 1013.88 1013.82 1013.74 1013.67 1013.60 1013.55 1013.51
Thickness
5745 5744 5743 5740 5736 5732 5729 5725 5722 5719 5715 5710 5705 5701 5698 5696 5694 5692 5690 5689 5687 5686 5685 5682 5680 5678 5677 5675 5674 5672 5670 5668 5667 5665 5665 5666 5667 5668 5670 5671 5672 5673 5675
5736 5736 5734 5731 5729 5726 5723 5720 5716 5713 5709 5705 5701 5697 5693 5690 5689 5686 5684 5683 5681 5680 5679 5676 5674 5672 5670 5668 5667 5665 5663 5661 5660 5658 5655 5655 5657 5660 5664 5664 5665 5667 5668
5729 5728 5727 5725 5722 5719 5717 5715 5711 5708 5704 5700 5695 5691 5688 5685 5682 5680 5678 5676 5675 5674 5671 5669 5666 5665 5663 5661 5660 5659 5656 5654 5652 5652 5649 5647 5647 5650 5654 5656 5658 5660 5661
5725 5723 5721 5719 5717 5715 5713 5710 5706 5702 5698 5694 5689 5684 5681 5677 5676 5674 5672 5670 5669 5666 5663 5661 5660 5657 5656 5655 5653 5652 5650 5648 5646 5645 5645 5644 5643 5642 5644 5647 5650 5652 5654
5720 5718 5717 5715 5712 5709 5706 5703 5699 5696 5693 5688 5683 5678 5675 5672 5669 5667 5665 5663 5661 5659 5656 5654 5653 5649 5648 5647 5646 5645 5644 5642 5641 5639 5638 5637 5636 5636 5637 5639 5641 5643 5646
5716 5714 5712 5709 5705 5702 5699 5695 5691 5688 5685 5681 5677 5672 5669 5666 5662 5660 5659 5656 5654 5651 5649 5647 5645 5643 5642 5640 5639 5639 5638 5636 5635 5634 5633 5632 5631 5631 5631 5632 5634 5635 5638
5709 5707 5704 5701 5697 5694 5690 5686 5683 5679 5677 5674 5670 5666 5663 5660 5657 5654 5652 5649 5645 5643 5641 5640 5637 5636 5635 5634 5633 5632 5631 5630 5629 5628 5627 5626 5626 5626 5625 5625 5626 5628 5631
5702 5699 5697 5694 5690 5686 5683 5679 5675 5671 5669 5666 5662 5659 5656 5654 5652 5649 5645 5642 5639 5637 5635 5632 5630 5629 5629 5628 5626 5625 5624 5623 5622 5623 5622 5621 5621 5620 5620 5620 5620 5621 5623
5694 5693 5691 5687 5683 5679 5676 5672 5668 5665 5662 5659 5656 5653 5651 5648 5645 5642 5640 5637 5634 5631 5629 5626 5624 5623 5621 5621 5620 5619 5618 5617 5616 5616 5616 5615 5615 5615 5615 5615 5615 5615 5617
5687 5685 5683 5680 5676 5673 5669 5666 5662 5659 5656 5654 5651 5648 5646 5643 5640 5636 5634 5631 5628 5626 5623 5620 5618 5617 5616 5615 5614 5613 5612 5611 5611 5611 5610 5610 5610 5610 5610 5610 5610 5611 5612
5681 5679 5676 5673 5669 5667 5664 5661 5657 5654 5652 5650 5647 5644 5641 5639 5635 5631 5628 5626 5623 5621 5618 5615 5613 5612 5611 5610 5609 5607 5606 5606 5606 5605 5605 5604 5604 5604 5605 5605 5606 5606 5606
5675 5672 5668 5665 5662 5660 5658 5655 5652 5649 5647 5645 5641 5637 5634 5632 5628 5626 5623 5620 5618 5616 5613 5611 5609 5607 5606 5605 5604 5602 5602 5601 5601 5600 5600 5599 5599 5599 5599 5600 5601 5601 5602
5668 5665 5661 5658 5655 5652 5651 5650 5647 5644 5641 5639 5635 5632 5629 5626 5623 5620 5618 5616 5613 5611 5609 5607 5604 5602 5601 5600 5598 5597 5596 5596 5596 5595 5594 5594 5593 5593 5594 5594 5595 5596 5597
5660 5658 5654 5651 5649 5646 5644 5643 5640 5638 5636 5633 5630 5626 5624 5621 5618 5616 5613 5610 5609 5607 5604 5601 5599 5597 5596 5595 5593 5592 5592 5591 5590 5590 5589 5589 5588 5589 5589 5590 5590 5590 5591
5653 5651 5649 5646 5643 5641 5639 5637 5634 5632 5630 5626 5624 5621 5619 5616 5613 5611 5608 5606 5605 5603 5599 5597 5595 5593 5591 5590 5588 5587 5587 5586 5585 5585 5585 5585 5585 5584 5584 5585 5585 5585 5585
5647 5645 5643 5641 5638 5636 5633 5631 5630 5627 5625 5622 5619 5617 5614 5612 5609 5607 5604 5602 5600 5597 5595 5593 5590 5588 5587 5586 5584 5584 5583 5581 5580 5580 5580 5580 5581 5580 5580 5580 5580 5580 5580
5643 5641 5639 5637 5634 5631 5629 5626 5625 5623 5620 5618 5615 5612 5610 5607 5605 5603 5601 5598 5596 5593 5591 5589 5587 5585 5583 5582 5581 5580 5579 5577 5576 5575 5575 5576 5576 5575 5575 5576 5575 5575 5575
5638 5637 5635 5633 5630 5628 5626 5624 5621 5619 5617 5614 5612 5608 5605 5603 5601 5599 5597 5595 5593 5590 5588 5586 5584 5582 5580 5579 5578 5577 5575 5574 5572 5571 5571 5570 5570 5569 5569 5569 5569 5569 5569
5633 5632 5631 5629 5627 5624 5623 5620 5617 5615 5613 5611 5608 5606 5603 5601 5598 5596 5594 5591 5590 5588 5586 5583 5581 5579 5578 5576 5575 5573 5571 5570 5569 5567 5566 5565 5565 5564 5563 5563 5563 5563 5564
5629 5628 5627 5625 5622 5620 5618 5616 5613 5611 5609 5608 5606 5604 5601 5599 5596 5594 5591 5589 5587 5585 5584 5582 5580 5578 5576 5575 5573 5571 5568 5566 5565 5564 5563 5562 5561 5560 5559 5558 5557 5558 5558
5625 5624 5623 5621 5619 5617 5614 5612 5611 5609 5608 5606 5604 5602 5600 5597 5595 5592 5589 5587 5585 5583 5581 5580 5579 5577 5575 5573 5571 5569 5566 5564 5563 5562 5561 5560 5558 5557 5556 5554 5554 5553 5553
5621 5620 5618 5617 5615 5614 5612 5610 5610 5610 5608 5605 5603 5601 5598 5596 5594 5591 5588 5586 5584 5581 5580 5578 5577 5576 5574 5572 5570 5568 5566 5563 5561 5560 5558 5557 5556 5555 5554 5553 5552 5551 5550
5617 5616 5614 5613 5612 5611 5610 5609 5609 5609 5607 5605 5602 5599 5597 5594 5592 5590 5587 5585 5582 5580 5579 5577 5575 5575 5574 5571 5569 5568 5565 5562 5559 5558 5556 5555 5554 5554 5554 5553 5551 5550 5549
5613 5612 5611 5610 5609 5609 5609 5609 5609 5608 5606 5603 5600 5598 5595 5593 5591 5589 5586 5584 5583 5581 5579 5577 5576 5574 5572 5571 5570 5567 5564 5562 5559 5557 5555 5554 5553 5553 5552 5551 5550 5549 5548
5609 5609 5608 5608 5608 5608 5608 5608 5609 5607 5604 5602 5599 5597 5595 5593 5590 5588 5586 5584 5583 5581 5579 5578 5576 5573 5573 5573 5569 5566 5563 5561 5558 5555 5554 5554 5553 5552 5552 5551 5550 5548 5547
5608 5607 5607 5606 5607 5607 5607 5608 5607 5606 5604 5601 5599 5596 5594 5592 5589 5587 5585 5585 5584 5583 5580 5578 5576 5575 5573 5571 5568 5565 5562 5559 5556 5553 5553 5553 5552 5551 5550 5549 5549 5548 5548